This demonstration page uses our WeatherBlox Daily Observations layout. Learn more.

39.92423, -83.80882

Hourly Observations for July 2, 2018

Temp ( °F °C ) Dew Point ( °F °C ) Humidity (%) Winds ( mph kmh ) Pressure ( in mb ) Visibility ( mi km ) Precip ( " mm )
12:56 am 00:56 Clear 74 23.3 70 21.1 88 88 S 5 7 30.01 1016 10 16.0934 0 0
1:56 am 01:56 Clear 74 23.3 70 21.1 88 88 S 6 9 29.99 1016 10 16.0934 0 0
2:56 am 02:56 Clear 74 23.3 70 21.1 88 88 SSW 7 11 29.98 1015 10 16.0934 0 0
3:56 am 03:56 Clear 73 22.8 70 21.1 90 90 Calm 29.98 1015 10 16.0934 0 0
5:56 am 05:56 Clear 72 22.2 70 21.1 94 94 S 5 7 30.01 1016 10 16.0934 0 0
6:56 am 06:56 Sunny 72 22.2 71 21.7 97 97 SSW 5 7 30.02 1017 10 16.0934 0 0
7:56 am 07:56 Sunny 74 23.3 71 21.7 91 91 SW 7 11 30.03 1017 10 16.0934 0 0
8:56 am 08:56 Sunny 78 25.6 73 22.8 85 85 VRB 6 9 30.04 1017 10 16.0934 0 0
9:56 am 09:56 Sunny 80 26.7 74 23.3 82 82 SSW 5 7 30.04 1017 10 16.0934 0 0
10:56 am 10:56 Sunny 83 28.3 75 23.9 77 77 VRB 5 7 30.04 1017 10 16.0934 0 0
11:56 am 11:56 Sunny 85 29.4 76 24.4 75 75 WSW 5 7 30.04 1017 10 16.0934 0 0
12:56 pm 12:56 Sunny 85 29.4 75 23.9 72 72 Calm 30.04 1017 10 16.0934 0 0
1:56 pm 13:56 Sunny 87 30.6 75 23.9 67 67 W 3 6 30.03 1017 10 16.0934 0 0
2:56 pm 14:56 Partly Cloudy with Thunderstorms 87 30.6 76 24.4 70 70 WSW 3 6 30.02 1017 10 16.0934 0 0.0254
3:56 pm 15:56 Partly Cloudy with Thunderstorms 82 27.8 73 22.8 74 74 SW 8 13 30.02 1017 10 16.0934 0 0
4:56 pm 16:56 Partly Cloudy with Nearby Thunderstorms 77 25 71 21.7 82 82 E 12 19 30.05 1018 9 14.48406 0 0
5:28 pm 17:28 Partly Cloudy with Heavy Thunderstorms 72 22 66 19 83 83 WSW 12 19 30.06 1018 2.5 4.02335 0.31 7.874
5:40 pm 17:40 Partly Cloudy with Thunderstorms 72 22 66 19 83 83 Calm 30.03 1017 5 8.0467 0.41 10.414
5:56 pm 17:56 Partly Cloudy with Light Thunderstorms 71 21.7 69 20.6 94 94 ESE 5 7 30.05 1018 9 14.48406 0.42 10.668
6:03 pm 18:03 Partly Cloudy with Light Rain 72 22 68 20 88 88 Calm 30.03 1017 10 16.0934 0 0.0254
6:56 pm 18:56 Sunny 73 22.8 70 21.1 90 90 SE 3 6 30.05 1018 10 16.0934 0 0.0254
7:56 pm 19:56 Sunny 74 23.3 71 21.7 91 91 Calm 30.05 1018 10 16.0934 0 0
8:56 pm 20:56 Sunny 75 23.9 73 22.8 94 94 SE 7 11 30.06 1018 10 16.0934 0 0
9:56 pm 21:56 Clear 74 23.3 71 21.7 91 91 Calm 30.09 1019 10 16.0934 0 0
10:56 pm 22:56 Clear 72 22.2 70 21.1 94 94 SE 5 7 30.1 1019 10 16.0934 0 0
11:56 pm 23:56 Clear 72 22.2 69 20.6 91 91 Calm 30.12 1020 10 16.0934 0 0

Powered by AerisWeather